This is the latest recevied weather packets stored in our database for station/object N8VDS-10. If no packets are shown the sender has not sent any weather packets the latest 10 day(s).
| Time | Temp. | Humidity | Pressure | Rain* | Wind** | Luminosity | Snow |
|---|---|---|---|---|---|---|---|
| 1777564913 | 9.44° C | 51% | 1018.3 hPa | 0 mm | - | 682 W/m² | - |
| 1777564304 | 8.89° C | 51% | 1018.2 hPa | 0 mm | - | 926 W/m² | - |
| 1777563392 | 8.89° C | 53% | 1018.5 hPa | 0 mm | - | 316 W/m² | - |
| 1777560969 | 8.89° C | 53% | 1018.2 hPa | 0 mm | - | 805 W/m² | - |
| 1777560665 | 7.78° C | 54% | 1018.1 hPa | 0 mm | - | 714 W/m² | - |
| 1777559756 | 8.33° C | 57% | 1018.3 hPa | 0 mm | - | 890 W/m² | - |
| 1777559454 | 7.78° C | 59% | 1018.3 hPa | 0 mm | - | 526 W/m² | - |
| 1777559150 | 7.78° C | 59% | 1018.3 hPa | 0 mm | - | 368 W/m² | - |
| 1777558850 | 7.78° C | 59% | 1018.2 hPa | 0 mm | - | 653 W/m² | - |
| 1777558242 | 7.22° C | 61% | 1018 hPa | 0 mm | - | 883 W/m² | - |
| 1777557938 | 7.22° C | 61% | 1018 hPa | 0 mm | - | 607 W/m² | - |
| 1777557331 | 6.67° C | 60% | 1017.9 hPa | 0 mm | - | 421 W/m² | - |
| 1777557028 | 6.67° C | 65% | 1018.1 hPa | 0 mm | - | 480 W/m² | - |
| 1777556120 | 6.11° C | 66% | 1017.7 hPa | 0 mm | - | 155 W/m² | - |
| 1777555816 | 6.67° C | 66% | 1017.8 hPa | 0 mm | - | 132 W/m² | - |
| 1777555511 | 6.11° C | 69% | 1018 hPa | 0 mm | - | 116 W/m² | - |
| 1777555208 | 6.11° C | 70% | 1017.6 hPa | 0 mm | - | 109 W/m² | - |
| 1777554299 | 6.11° C | 71% | 1017.7 hPa | 0 mm | - | 87 W/m² | - |
| 1777553996 | 6.11° C | 73% | 1017.9 hPa | 0 mm | - | 81 W/m² | - |
| 1777552785 | 5° C | 78% | 1017.8 hPa | 0 mm | - | 64 W/m² | - |
| 1777552481 | 5° C | 79% | 1017.8 hPa | 0 mm | - | 62 W/m² | - |
| 1777552177 | 5° C | 81% | 1017.8 hPa | 0 mm | - | 58 W/m² | - |
| 1777551874 | 4.44° C | 84% | 1018 hPa | 0 mm | - | 55 W/m² | - |
| 1777551572 | 4.44° C | 83% | 1017.9 hPa | 0 mm | - | 41 W/m² | - |
| 1777550966 | 4.44° C | 84% | 1018.1 hPa | 0 mm | - | 79 W/m² | - |
* Rain latest hour (hover to see other rain measurements)
** Current wind speed in m/s (hover to see current wind gust speed)